contact:dominique.lefevre@mio.osupytheas.fr, maurice.libes@osupytheas.fr, didier.mallarino@osupytheas.fr
Project:EMSO http://www.emso-fr.org/EMSO-France
Depth: 2436.0 m
Title:EMSO Ligure Ouest : Data MII capteur CSTAR
DateTime,Latitude,Longitude,Instrument_Serial,Reference_Counts,Signal_Counts,Corrected_Signal_raw_counts,Calculated_Beam_c_inverse_meters,Internal_thermistor_counts
DateTime,Latitude,Longitude,Instrument_Serial,Reference_Counts,Signal_Counts,Corrected_Signal_raw_counts,Calculated_Beam_c_inverse_meters,Internal_thermistor_counts
2019-07-21T00:01:29,42.805,6.029,CST-1368DR,8596,12025,15462,0.040,551
2019-07-21T00:04:31,42.805,6.029,CST-1368DR,8596,12025,15463,0.039,551
2019-07-21T00:07:33,42.805,6.029,CST-1368DR,8596,12023,15459,0.040,551
2019-07-21T00:10:34,42.805,6.029,CST-1368DR,8595,12026,15465,0.039,550
2019-07-21T00:13:36,42.805,6.029,CST-1368DR,8595,12026,15465,0.039,551
2019-07-21T00:16:37,42.805,6.029,CST-1368DR,8595,12026,15465,0.039,551
2019-07-21T00:19:39,42.805,6.029,CST-1368DR,8595,12024,15462,0.040,551
2019-07-21T00:22:41,42.805,6.029,CST-1368DR,8595,12025,15464,0.039,551
2019-07-21T00:25:42,42.805,6.029,CST-1368DR,8595,12026,15465,0.039,551
2019-07-21T00:28:44,42.805,6.029,CST-1368DR,8595,12023,15461,0.040,551
2019-07-21T00:31:46,42.805,6.029,CST-1368DR,8595,12024,15462,0.040,551
2019-07-21T00:34:47,42.805,6.029,CST-1368DR,8595,12024,15463,0.039,551
2019-07-21T00:37:49,42.805,6.029,CST-1368DR,8595,12023,15461,0.040,551
2019-07-21T00:40:50,42.805,6.029,CST-1368DR,8595,12022,15460,0.040,550
2019-07-21T00:43:52,42.805,6.029,CST-1368DR,8595,12025,15464,0.039,551
2019-07-21T00:46:54,42.805,6.029,CST-1368DR,8595,12024,15463,0.039,551
2019-07-21T00:49:55,42.805,6.029,CST-1368DR,8595,12024,15463,0.039,551
2019-07-21T00:52:57,42.805,6.029,CST-1368DR,8595,12024,15463,0.039,551
2019-07-21T00:55:58,42.805,6.029,CST-1368DR,8595,12018,15455,0.041,551
2019-07-21T00:59:00,42.805,6.029,CST-1368DR,8595,12023,15462,0.040,551
2019-07-21T01:02:02,42.805,6.029,CST-1368DR,8595,12023,15461,0.040,551
2019-07-21T01:05:03,42.805,6.029,CST-1368DR,8595,12024,15462,0.040,551
2019-07-21T01:08:06,42.805,6.029,CST-1368DR,8595,12024,15463,0.039,550
2019-07-21T01:11:07,42.805,6.029,CST-1368DR,8595,12020,15457,0.041,551
2019-07-21T01:14:09,42.805,6.029,CST-1368DR,8595,12020,15458,0.041,551
2019-07-21T01:17:11,42.805,6.029,CST-1368DR,8595,12024,15462,0.040,551
2019-07-21T01:20:12,42.805,6.029,CST-1368DR,8595,12026,15465,0.039,551
2019-07-21T01:23:14,42.805,6.029,CST-1368DR,8595,12024,15463,0.039,551
2019-07-21T01:26:15,42.805,6.029,CST-1368DR,8595,12023,15461,0.040,550
2019-07-21T01:29:17,42.805,6.029,CST-1368DR,8595,12022,15460,0.040,551
2019-07-21T01:32:19,42.805,6.029,CST-1368DR,8595,12024,15463,0.039,551
2019-07-21T01:35:21,42.805,6.029,CST-1368DR,8595,12023,15461,0.040,551
2019-07-21T01:38:22,42.805,6.029,CST-1368DR,8595,12024,15462,0.040,551
2019-07-21T01:41:24,42.805,6.029,CST-1368DR,8594,12022,15462,0.040,551
2019-07-21T01:44:26,42.805,6.029,CST-1368DR,8594,12024,15464,0.039,551
2019-07-21T01:47:28,42.805,6.029,CST-1368DR,8594,12017,15455,0.041,551
2019-07-21T01:50:29,42.805,6.029,CST-1368DR,8594,12023,15462,0.040,551
2019-07-21T01:53:31,42.805,6.029,CST-1368DR,8594,12024,15464,0.039,551
2019-07-21T01:56:33,42.805,6.029,CST-1368DR,8594,12023,15462,0.040,551
2019-07-21T01:59:35,42.805,6.029,CST-1368DR,8594,12024,15464,0.039,550
2019-07-21T02:02:36,42.805,6.029,CST-1368DR,8594,12023,15463,0.039,551
2019-07-21T02:05:38,42.805,6.029,CST-1368DR,8594,12023,15463,0.039,551
2019-07-21T02:08:40,42.805,6.029,CST-1368DR,8594,12023,15463,0.039,551
2019-07-21T02:11:42,42.805,6.029,CST-1368DR,8594,12023,15462,0.040,551
2019-07-21T02:14:43,42.805,6.029,CST-1368DR,8594,12023,15462,0.040,551
2019-07-21T02:17:45,42.805,6.029,CST-1368DR,8594,12024,15464,0.039,551
2019-07-21T02:20:47,42.805,6.029,CST-1368DR,8594,12023,15463,0.039,550
2019-07-21T02:23:49,42.805,6.029,CST-1368DR,8594,12023,15463,0.039,551
2019-07-21T02:26:50,42.805,6.029,CST-1368DR,8594,12020,15459,0.040,551
2019-07-21T02:29:52,42.805,6.029,CST-1368DR,8594,12021,15460,0.040,551
2019-07-21T02:32:54,42.805,6.029,CST-1368DR,8594,12024,15464,0.039,551
2019-07-21T02:35:56,42.805,6.029,CST-1368DR,8594,12019,15458,0.041,551
2019-07-21T02:38:57,42.805,6.029,CST-1368DR,8594,12023,15463,0.039,551
2019-07-21T02:41:59,42.805,6.029,CST-1368DR,8594,12023,15463,0.039,551
2019-07-21T02:45:01,42.805,6.029,CST-1368DR,8594,12023,15463,0.039,551
2019-07-21T02:48:03,42.805,6.029,CST-1368DR,8594,12022,15461,0.040,551
2019-07-21T02:51:05,42.805,6.029,CST-1368DR,8594,12022,15461,0.040,550
2019-07-21T02:54:06,42.805,6.029,CST-1368DR,8594,12021,15461,0.040,551
2019-07-21T02:57:08,42.805,6.029,CST-1368DR,8594,12023,15463,0.039,550
2019-07-21T03:00:10,42.805,6.029,CST-1368DR,8594,12017,15455,0.041,551
2019-07-21T03:03:11,42.805,6.029,CST-1368DR,8594,12022,15461,0.040,551
2019-07-21T03:06:13,42.805,6.029,CST-1368DR,8594,12023,15463,0.039,551
2019-07-21T03:09:15,42.805,6.029,CST-1368DR,8594,12022,15462,0.040,551
2019-07-21T03:12:17,42.805,6.029,CST-1368DR,8594,12021,15460,0.040,550
2019-07-21T03:15:19,42.805,6.029,CST-1368DR,8593,12022,15464,0.039,551
2019-07-21T03:18:20,42.805,6.029,CST-1368DR,8593,12021,15462,0.040,551
2019-07-21T03:21:22,42.805,6.029,CST-1368DR,8593,12021,15462,0.040,551
2019-07-21T03:24:24,42.805,6.029,CST-1368DR,8593,12023,15464,0.039,551
2019-07-21T03:27:26,42.805,6.029,CST-1368DR,8593,12022,15464,0.039,551
2019-07-21T03:30:27,42.805,6.029,CST-1368DR,8593,12022,15464,0.039,551
2019-07-21T03:33:29,42.805,6.029,CST-1368DR,8593,12023,15464,0.039,551
2019-07-21T03:36:31,42.805,6.029,CST-1368DR,8593,12022,15463,0.039,551
2019-07-21T03:39:33,42.805,6.029,CST-1368DR,8593,12022,15463,0.039,551
2019-07-21T03:42:34,42.805,6.029,CST-1368DR,8593,12023,15464,0.039,551
2019-07-21T03:45:36,42.805,6.029,CST-1368DR,8593,12022,15464,0.039,551
2019-07-21T03:48:38,42.805,6.029,CST-1368DR,8593,12023,15464,0.039,551
2019-07-21T03:51:40,42.805,6.029,CST-1368DR,8593,12022,15463,0.039,551
2019-07-21T03:54:41,42.805,6.029,CST-1368DR,8593,12022,15464,0.039,550
2019-07-21T03:57:43,42.805,6.029,CST-1368DR,8593,12021,15462,0.040,551
2019-07-21T04:00:45,42.805,6.029,CST-1368DR,8593,12020,15460,0.040,551
2019-07-21T04:03:47,42.805,6.029,CST-1368DR,8593,12021,15461,0.040,551
2019-07-21T04:06:48,42.805,6.029,CST-1368DR,8593,12022,15463,0.039,551
2019-07-21T04:09:50,42.805,6.029,CST-1368DR,8593,12022,15463,0.039,551
2019-07-21T04:12:52,42.805,6.029,CST-1368DR,8593,12023,15464,0.039,551
2019-07-21T04:15:54,42.805,6.029,CST-1368DR,8593,12021,15462,0.040,551
2019-07-21T04:18:56,42.805,6.029,CST-1368DR,8593,12022,15463,0.039,551
2019-07-21T04:21:57,42.805,6.029,CST-1368DR,8593,12023,15465,0.039,551
2019-07-21T04:24:59,42.805,6.029,CST-1368DR,8593,12022,15463,0.039,551
2019-07-21T04:28:01,42.805,6.029,CST-1368DR,8593,12022,15463,0.039,551
2019-07-21T04:31:03,42.805,6.029,CST-1368DR,8593,12022,15463,0.039,551
2019-07-21T04:34:04,42.805,6.029,CST-1368DR,8593,12021,15462,0.040,551
2019-07-21T04:37:06,42.805,6.029,CST-1368DR,8593,12022,15463,0.039,550
2019-07-21T04:40:08,42.805,6.029,CST-1368DR,8593,12023,15464,0.039,551
2019-07-21T04:43:10,42.805,6.029,CST-1368DR,8593,12022,15463,0.039,551
2019-07-21T04:46:12,42.805,6.029,CST-1368DR,8593,12021,15462,0.040,551
2019-07-21T04:49:13,42.805,6.029,CST-1368DR,8593,12018,15459,0.040,551
2019-07-21T04:52:15,42.805,6.029,CST-1368DR,8593,12022,15464,0.039,550
2019-07-21T04:55:17,42.805,6.029,CST-1368DR,8593,12015,15454,0.042,551
2019-07-21T04:58:19,42.805,6.029,CST-1368DR,8593,12022,15463,0.039,551
2019-07-21T05:01:20,42.805,6.029,CST-1368DR,8593,12021,15462,0.040,551
2019-07-21T05:04:22,42.805,6.029,CST-1368DR,8593,12020,15460,0.040,551
2019-07-21T05:07:24,42.805,6.029,CST-1368DR,8593,12020,15461,0.040,551
2019-07-21T05:10:25,42.805,6.029,CST-1368DR,8593,12022,15463,0.039,551
2019-07-21T05:13:27,42.805,6.029,CST-1368DR,8593,12022,15463,0.039,551
2019-07-21T05:16:29,42.805,6.029,CST-1368DR,8592,12022,15464,0.039,551
2019-07-21T05:19:31,42.805,6.029,CST-1368DR,8592,12021,15464,0.039,551
2019-07-21T05:22:33,42.805,6.029,CST-1368DR,8592,12021,15463,0.039,551
2019-07-21T05:25:34,42.805,6.029,CST-1368DR,8592,12022,15465,0.039,550
2019-07-21T05:28:36,42.805,6.029,CST-1368DR,8592,12021,15463,0.039,551
2019-07-21T05:31:38,42.805,6.029,CST-1368DR,8592,12021,15463,0.039,551
2019-07-21T05:34:40,42.805,6.029,CST-1368DR,8592,12021,15464,0.039,551
2019-07-21T05:37:41,42.805,6.029,CST-1368DR,8592,12021,15464,0.039,551
2019-07-21T05:40:43,42.805,6.029,CST-1368DR,8592,12019,15461,0.040,551
2019-07-21T05:43:45,42.805,6.029,CST-1368DR,8592,12021,15463,0.039,550
2019-07-21T05:46:47,42.805,6.029,CST-1368DR,8592,12021,15464,0.039,551
2019-07-21T05:49:48,42.805,6.029,CST-1368DR,8592,12021,15463,0.039,551
2019-07-21T05:52:50,42.805,6.029,CST-1368DR,8592,12019,15461,0.040,551
2019-07-21T05:55:52,42.805,6.029,CST-1368DR,8592,12021,15463,0.039,551
2019-07-21T05:58:54,42.805,6.029,CST-1368DR,8592,12020,15462,0.040,551
2019-07-21T06:01:55,42.805,6.029,CST-1368DR,8592,12021,15463,0.039,551
2019-07-21T06:04:57,42.805,6.029,CST-1368DR,8592,12021,15463,0.039,551
2019-07-21T06:07:59,42.805,6.029,CST-1368DR,8592,12018,15460,0.040,551
2019-07-21T06:11:01,42.805,6.029,CST-1368DR,8592,12022,15464,0.039,551
2019-07-21T06:14:02,42.805,6.029,CST-1368DR,8592,12019,15461,0.040,551
2019-07-21T06:17:04,42.805,6.029,CST-1368DR,8592,12019,15461,0.040,551
2019-07-21T06:20:06,42.805,6.029,CST-1368DR,8592,12019,15461,0.040,551
2019-07-21T06:23:08,42.805,6.029,CST-1368DR,8592,12020,15463,0.039,551
2019-07-21T06:26:09,42.805,6.029,CST-1368DR,8592,12020,15462,0.040,550
2019-07-21T06:29:11,42.805,6.029,CST-1368DR,8592,12018,15460,0.040,551
2019-07-21T06:32:13,42.805,6.029,CST-1368DR,8592,12020,15462,0.040,551
2019-07-21T06:35:15,42.805,6.029,CST-1368DR,8592,12019,15461,0.040,551
2019-07-21T06:38:17,42.805,6.029,CST-1368DR,8592,12021,15464,0.039,551
2019-07-21T06:41:18,42.805,6.029,CST-1368DR,8592,12018,15460,0.040,551
2019-07-21T06:44:20,42.805,6.029,CST-1368DR,8592,12016,15458,0.041,551
2019-07-21T06:47:22,42.805,6.029,CST-1368DR,8592,12017,15459,0.040,551
2019-07-21T06:50:23,42.805,6.029,CST-1368DR,8592,12020,15462,0.040,551
2019-07-21T06:53:25,42.805,6.029,CST-1368DR,8592,12019,15461,0.040,551
2019-07-21T06:56:27,42.805,6.029,CST-1368DR,8592,12020,15462,0.040,551
2019-07-21T06:59:29,42.805,6.029,CST-1368DR,8592,12020,15462,0.040,551
2019-07-21T07:02:31,42.805,6.029,CST-1368DR,8592,12020,15462,0.040,551
2019-07-21T07:05:32,42.805,6.029,CST-1368DR,8592,12020,15462,0.040,551
2019-07-21T07:08:34,42.805,6.029,CST-1368DR,8592,12017,15459,0.040,551
2019-07-21T07:11:36,42.805,6.029,CST-1368DR,8592,12018,15459,0.040,551
2019-07-21T07:14:38,42.805,6.029,CST-1368DR,8591,12020,15464,0.039,551
2019-07-21T07:17:39,42.805,6.029,CST-1368DR,8591,12019,15463,0.039,551
2019-07-21T07:20:41,42.805,6.029,CST-1368DR,8591,12019,15463,0.039,551
2019-07-21T07:23:43,42.805,6.029,CST-1368DR,8591,12019,15463,0.039,550
2019-07-21T07:26:45,42.805,6.029,CST-1368DR,8591,12019,15462,0.040,551
2019-07-21T07:29:47,42.805,6.029,CST-1368DR,8591,12019,15463,0.039,551
2019-07-21T07:32:48,42.805,6.029,CST-1368DR,8591,12017,15461,0.040,551
2019-07-21T07:35:50,42.805,6.029,CST-1368DR,8591,12020,15463,0.039,551
2019-07-21T07:38:52,42.805,6.029,CST-1368DR,8591,12020,15464,0.039,551
2019-07-21T07:41:54,42.805,6.029,CST-1368DR,8591,12019,15462,0.040,550
2019-07-21T07:44:55,42.805,6.029,CST-1368DR,8591,12016,15458,0.041,551
2019-07-21T07:47:57,42.805,6.029,CST-1368DR,8591,12019,15463,0.039,551
2019-07-21T07:50:59,42.805,6.029,CST-1368DR,8591,12017,15460,0.040,551
2019-07-21T07:54:01,42.805,6.029,CST-1368DR,8591,12015,15457,0.041,551
2019-07-21T07:57:03,42.805,6.029,CST-1368DR,8591,12018,15462,0.040,551
2019-07-21T08:00:04,42.805,6.029,CST-1368DR,8591,12018,15462,0.040,551
2019-07-21T08:03:06,42.805,6.029,CST-1368DR,8591,12016,15459,0.040,551
2019-07-21T08:06:08,42.805,6.029,CST-1368DR,8591,12018,15462,0.040,551
2019-07-21T08:09:10,42.805,6.029,CST-1368DR,8591,12020,15464,0.039,551
2019-07-21T08:12:11,42.805,6.029,CST-1368DR,8591,12018,15462,0.040,551
2019-07-21T08:15:13,42.805,6.029,CST-1368DR,8591,12018,15462,0.040,551
2019-07-21T08:18:15,42.805,6.029,CST-1368DR,8591,12020,15463,0.039,551
2019-07-21T08:21:17,42.805,6.029,CST-1368DR,8591,12017,15460,0.040,551
2019-07-21T08:24:18,42.805,6.029,CST-1368DR,8591,12019,15462,0.040,551
2019-07-21T08:27:21,42.805,6.029,CST-1368DR,8591,12018,15462,0.040,551
2019-07-21T08:30:22,42.805,6.029,CST-1368DR,8591,12019,15462,0.040,551
2019-07-21T08:33:24,42.805,6.029,CST-1368DR,8591,12019,15463,0.039,551
2019-07-21T08:36:26,42.805,6.029,CST-1368DR,8591,12019,15463,0.039,551
2019-07-21T08:39:27,42.805,6.029,CST-1368DR,8591,12019,15462,0.040,551
2019-07-21T08:42:29,42.805,6.029,CST-1368DR,8591,12020,15464,0.039,551
2019-07-21T08:45:30,42.805,6.029,CST-1368DR,8591,12016,15459,0.040,551
2019-07-21T08:48:32,42.805,6.029,CST-1368DR,8591,12019,15463,0.039,551
2019-07-21T08:51:34,42.805,6.029,CST-1368DR,8591,12010,15451,0.042,551
2019-07-21T08:54:35,42.805,6.029,CST-1368DR,8591,12016,15459,0.040,551
2019-07-21T08:57:37,42.805,6.029,CST-1368DR,8591,12016,15458,0.041,551
2019-07-21T09:00:39,42.805,6.029,CST-1368DR,8591,12019,15463,0.039,550
2019-07-21T09:03:40,42.805,6.029,CST-1368DR,8591,12019,15463,0.039,551
2019-07-21T09:06:42,42.805,6.029,CST-1368DR,8591,12020,15464,0.039,551
2019-07-21T09:09:43,42.805,6.029,CST-1368DR,8591,12016,15459,0.040,551
2019-07-21T09:12:45,42.805,6.029,CST-1368DR,8590,12016,15460,0.040,551
2019-07-21T09:15:47,42.805,6.029,CST-1368DR,8590,12011,15454,0.042,551
2019-07-21T09:18:48,42.805,6.029,CST-1368DR,8590,12019,15464,0.039,551
2019-07-21T09:21:50,42.805,6.029,CST-1368DR,8591,12017,15460,0.040,551
2019-07-21T09:24:52,42.805,6.029,CST-1368DR,8590,12012,15455,0.041,551
2019-07-21T09:27:53,42.805,6.029,CST-1368DR,8590,12018,15463,0.039,551
2019-07-21T09:30:55,42.805,6.029,CST-1368DR,8590,12016,15461,0.040,551
2019-07-21T09:33:57,42.805,6.029,CST-1368DR,8590,12017,15462,0.040,551
2019-07-21T09:36:58,42.805,6.029,CST-1368DR,8590,12017,15462,0.040,550
2019-07-21T09:40:00,42.805,6.029,CST-1368DR,8590,12017,15462,0.040,551
2019-07-21T09:43:02,42.805,6.029,CST-1368DR,8590,12017,15461,0.040,551
2019-07-21T09:46:03,42.805,6.029,CST-1368DR,8590,12016,15460,0.040,551
2019-07-21T09:49:05,42.805,6.029,CST-1368DR,8590,12011,15455,0.041,551
2019-07-21T09:52:06,42.805,6.029,CST-1368DR,8590,12017,15462,0.040,551
2019-07-21T09:55:08,42.805,6.029,CST-1368DR,8590,12016,15461,0.040,551
2019-07-21T09:58:10,42.805,6.029,CST-1368DR,8590,12018,15463,0.039,551
2019-07-21T10:01:11,42.805,6.029,CST-1368DR,8590,12016,15461,0.040,551
2019-07-21T10:04:13,42.805,6.029,CST-1368DR,8589,11907,15322,0.076,551
2019-07-21T10:07:15,42.805,6.029,CST-1368DR,8590,12015,15459,0.040,551
2019-07-21T10:10:16,42.805,6.029,CST-1368DR,8590,12015,15459,0.040,551
2019-07-21T10:13:18,42.805,6.029,CST-1368DR,8590,12015,15459,0.040,551
2019-07-21T10:16:19,42.805,6.029,CST-1368DR,8590,12016,15461,0.040,551
2019-07-21T10:19:21,42.805,6.029,CST-1368DR,8590,12017,15462,0.040,551
2019-07-21T10:22:23,42.805,6.029,CST-1368DR,8590,12016,15461,0.040,551
2019-07-21T10:25:24,42.805,6.029,CST-1368DR,8590,12012,15455,0.041,551
2019-07-21T10:28:26,42.805,6.029,CST-1368DR,8590,12017,15461,0.040,551
2019-07-21T10:31:28,42.805,6.029,CST-1368DR,8590,12016,15461,0.040,551
2019-07-21T10:34:29,42.805,6.029,CST-1368DR,8590,12016,15461,0.040,551
2019-07-21T10:37:31,42.805,6.029,CST-1368DR,8590,12016,15461,0.040,551
2019-07-21T10:40:33,42.805,6.029,CST-1368DR,8590,12016,15461,0.040,551
2019-07-21T10:43:34,42.805,6.029,CST-1368DR,8590,12016,15460,0.040,551
2019-07-21T10:46:36,42.805,6.029,CST-1368DR,8590,12015,15459,0.040,551
2019-07-21T10:49:37,42.805,6.029,CST-1368DR,8590,12013,15457,0.041,551
2019-07-21T10:52:39,42.805,6.029,CST-1368DR,8590,12013,15457,0.041,551
2019-07-21T10:55:41,42.805,6.029,CST-1368DR,8590,12013,15456,0.041,550
2019-07-21T10:58:42,42.805,6.029,CST-1368DR,8590,12014,15458,0.041,551
2019-07-21T11:01:44,42.805,6.029,CST-1368DR,8590,12016,15461,0.040,551
2019-07-21T11:04:46,42.805,6.029,CST-1368DR,8590,12016,15460,0.040,551
2019-07-21T11:07:47,42.805,6.029,CST-1368DR,8590,12014,15458,0.041,551
2019-07-21T11:10:49,42.805,6.029,CST-1368DR,8590,12016,15461,0.040,551
2019-07-21T11:13:51,42.805,6.029,CST-1368DR,8589,12013,15458,0.041,551
2019-07-21T11:16:52,42.805,6.029,CST-1368DR,8589,12017,15463,0.039,551
2019-07-21T11:19:54,42.805,6.029,CST-1368DR,8590,12014,15458,0.041,551
2019-07-21T11:22:56,42.805,6.029,CST-1368DR,8589,12012,15456,0.041,551
2019-07-21T11:25:57,42.805,6.029,CST-1368DR,8589,12016,15463,0.039,551
2019-07-21T11:28:59,42.805,6.029,CST-1368DR,8589,12015,15461,0.040,550
2019-07-21T11:32:00,42.805,6.029,CST-1368DR,8589,12015,15461,0.040,550
2019-07-21T11:35:02,42.805,6.029,CST-1368DR,8589,12014,15459,0.040,551
2019-07-21T11:38:04,42.805,6.029,CST-1368DR,8589,12013,15458,0.041,551
2019-07-21T11:41:05,42.805,6.029,CST-1368DR,8589,12016,15462,0.040,551
2019-07-21T11:44:07,42.805,6.029,CST-1368DR,8589,12015,15461,0.040,551
2019-07-21T11:47:09,42.805,6.029,CST-1368DR,8589,12015,15461,0.040,551
2019-07-21T11:50:10,42.805,6.029,CST-1368DR,8589,12013,15459,0.040,551
2019-07-21T11:53:12,42.805,6.029,CST-1368DR,8589,12012,15456,0.041,550
2019-07-21T11:56:14,42.805,6.029,CST-1368DR,8589,12015,15460,0.040,551
2019-07-21T11:59:15,42.805,6.029,CST-1368DR,8589,12014,15460,0.040,551
2019-07-21T12:02:17,42.805,6.029,CST-1368DR,8589,12015,15461,0.040,550
2019-07-21T12:05:19,42.805,6.029,CST-1368DR,8589,12014,15459,0.040,551
2019-07-21T12:08:20,42.805,6.029,CST-1368DR,8589,12015,15461,0.040,551
2019-07-21T12:11:22,42.805,6.029,CST-1368DR,8589,12014,15459,0.040,551
2019-07-21T12:14:23,42.805,6.029,CST-1368DR,8589,12015,15461,0.040,551
2019-07-21T12:17:25,42.805,6.029,CST-1368DR,8589,12015,15461,0.040,550
2019-07-21T12:20:27,42.805,6.029,CST-1368DR,8589,12016,15462,0.040,551
2019-07-21T12:23:28,42.805,6.029,CST-1368DR,8589,12015,15461,0.040,551
2019-07-21T12:26:30,42.805,6.029,CST-1368DR,8589,12014,15460,0.040,551
2019-07-21T12:29:32,42.805,6.029,CST-1368DR,8589,12016,15462,0.040,551
2019-07-21T12:32:33,42.805,6.029,CST-1368DR,8589,12015,15460,0.040,551
2019-07-21T12:35:35,42.805,6.029,CST-1368DR,8589,12015,15461,0.040,551
2019-07-21T12:38:36,42.805,6.029,CST-1368DR,8589,12014,15459,0.040,551
2019-07-21T12:41:38,42.805,6.029,CST-1368DR,8589,12014,15460,0.040,551
2019-07-21T12:44:40,42.805,6.029,CST-1368DR,8589,12016,15462,0.040,551
2019-07-21T12:47:41,42.805,6.029,CST-1368DR,8588,12014,15461,0.040,550
2019-07-21T12:50:43,42.805,6.029,CST-1368DR,8588,12014,15461,0.040,551
2019-07-21T12:53:45,42.805,6.029,CST-1368DR,8588,12015,15463,0.039,550
2019-07-21T12:56:46,42.805,6.029,CST-1368DR,8588,12015,15462,0.040,551
2019-07-21T12:59:48,42.805,6.029,CST-1368DR,8588,12014,15461,0.040,551
2019-07-21T13:02:49,42.805,6.029,CST-1368DR,8588,12013,15460,0.040,551
2019-07-21T13:05:51,42.805,6.029,CST-1368DR,8588,12014,15461,0.040,551
2019-07-21T13:08:53,42.805,6.029,CST-1368DR,8588,12014,15461,0.040,551
2019-07-21T13:11:54,42.805,6.029,CST-1368DR,8588,12014,15461,0.040,551
2019-07-21T13:14:56,42.805,6.029,CST-1368DR,8588,12015,15462,0.040,551
2019-07-21T13:17:58,42.805,6.029,CST-1368DR,8588,12014,15461,0.040,551
2019-07-21T13:20:59,42.805,6.029,CST-1368DR,8588,12012,15458,0.041,551
2019-07-21T13:24:01,42.805,6.029,CST-1368DR,8588,12014,15461,0.040,551
2019-07-21T13:27:02,42.805,6.029,CST-1368DR,8588,12014,15461,0.040,551
2019-07-21T13:30:04,42.805,6.029,CST-1368DR,8588,12014,15461,0.040,550
2019-07-21T13:33:06,42.805,6.029,CST-1368DR,8588,12015,15463,0.039,551
2019-07-21T13:36:08,42.805,6.029,CST-1368DR,8588,12013,15460,0.040,551
2019-07-21T13:39:09,42.805,6.029,CST-1368DR,8588,12013,15460,0.040,551
2019-07-21T13:42:11,42.805,6.029,CST-1368DR,8588,12013,15460,0.040,551
2019-07-21T13:45:13,42.805,6.029,CST-1368DR,8588,12012,15458,0.041,551
2019-07-21T13:48:14,42.805,6.029,CST-1368DR,8588,12014,15461,0.040,551
2019-07-21T13:51:16,42.805,6.029,CST-1368DR,8588,12013,15460,0.040,551
2019-07-21T13:54:17,42.805,6.029,CST-1368DR,8588,12013,15460,0.040,550
2019-07-21T13:57:20,42.805,6.029,CST-1368DR,8588,12009,15454,0.042,551
2019-07-21T14:00:21,42.805,6.029,CST-1368DR,8588,12013,15460,0.040,551
2019-07-21T14:03:23,42.805,6.029,CST-1368DR,8588,12013,15460,0.040,551
2019-07-21T14:06:25,42.805,6.029,CST-1368DR,8588,12011,15457,0.041,551
2019-07-21T14:09:26,42.805,6.029,CST-1368DR,8588,12013,15460,0.040,551
2019-07-21T14:12:28,42.805,6.029,CST-1368DR,8588,12011,15458,0.041,550
2019-07-21T14:15:30,42.805,6.029,CST-1368DR,8588,12011,15457,0.041,551
2019-07-21T14:18:31,42.805,6.029,CST-1368DR,8588,12014,15461,0.040,551
2019-07-21T14:21:33,42.805,6.029,CST-1368DR,8588,12013,15460,0.040,551
2019-07-21T14:24:34,42.805,6.029,CST-1368DR,8588,12014,15461,0.040,551
2019-07-21T14:27:36,42.805,6.029,CST-1368DR,8588,12014,15461,0.040,551
2019-07-21T14:30:38,42.805,6.029,CST-1368DR,8587,12014,15463,0.039,551
2019-07-21T14:33:39,42.805,6.029,CST-1368DR,8587,12011,15459,0.040,551
2019-07-21T14:36:41,42.805,6.029,CST-1368DR,8587,12013,15461,0.040,551
2019-07-21T14:39:43,42.805,6.029,CST-1368DR,8587,12013,15462,0.040,551
2019-07-21T14:42:44,42.805,6.029,CST-1368DR,8587,12014,15462,0.040,551
2019-07-21T14:45:46,42.805,6.029,CST-1368DR,8587,12013,15462,0.040,551
2019-07-21T14:48:47,42.805,6.029,CST-1368DR,8587,12013,15462,0.040,551
2019-07-21T14:51:49,42.805,6.029,CST-1368DR,8587,12010,15458,0.041,551
2019-07-21T14:54:51,42.805,6.029,CST-1368DR,8587,12008,15455,0.041,551
2019-07-21T14:57:52,42.805,6.029,CST-1368DR,8587,12013,15462,0.040,551
2019-07-21T15:00:54,42.805,6.029,CST-1368DR,8587,12013,15462,0.040,551
2019-07-21T15:03:56,42.805,6.029,CST-1368DR,8587,12013,15462,0.040,551
2019-07-21T15:06:57,42.805,6.029,CST-1368DR,8587,12012,15461,0.040,551
2019-07-21T15:09:59,42.805,6.029,CST-1368DR,8587,12013,15461,0.040,551
2019-07-21T15:13:00,42.805,6.029,CST-1368DR,8587,12014,15463,0.039,551
2019-07-21T15:16:02,42.805,6.029,CST-1368DR,8587,12014,15462,0.040,551
2019-07-21T15:19:04,42.805,6.029,CST-1368DR,8587,12013,15462,0.040,551
2019-07-21T15:22:05,42.805,6.029,CST-1368DR,8587,12013,15461,0.040,551
2019-07-21T15:25:07,42.805,6.029,CST-1368DR,8587,12011,15459,0.040,551
2019-07-21T15:28:09,42.805,6.029,CST-1368DR,8587,12012,15461,0.040,551
2019-07-21T15:31:10,42.805,6.029,CST-1368DR,8587,12014,15463,0.039,551
2019-07-21T15:34:12,42.805,6.029,CST-1368DR,8587,12013,15462,0.040,551
2019-07-21T15:37:13,42.805,6.029,CST-1368DR,8587,12008,15455,0.041,551
2019-07-21T15:40:15,42.805,6.029,CST-1368DR,8587,12012,15460,0.040,551
2019-07-21T15:43:17,42.805,6.029,CST-1368DR,8587,12012,15460,0.040,551
2019-07-21T15:46:18,42.805,6.029,CST-1368DR,8587,12013,15461,0.040,551
2019-07-21T15:49:20,42.805,6.029,CST-1368DR,8587,12011,15459,0.040,551
2019-07-21T15:52:22,42.805,6.029,CST-1368DR,8587,12012,15460,0.040,551
2019-07-21T15:55:23,42.805,6.029,CST-1368DR,8587,12012,15460,0.040,551
2019-07-21T15:58:25,42.805,6.029,CST-1368DR,8586,12010,15459,0.040,551
2019-07-21T16:01:27,42.805,6.029,CST-1368DR,8586,12010,15460,0.040,551
2019-07-21T16:04:29,42.805,6.029,CST-1368DR,8586,12012,15462,0.040,551
2019-07-21T16:07:30,42.805,6.029,CST-1368DR,8586,12011,15461,0.040,551
2019-07-21T16:10:32,42.805,6.029,CST-1368DR,8586,12012,15461,0.040,551
2019-07-21T16:13:34,42.805,6.029,CST-1368DR,8586,12009,15459,0.040,551
2019-07-21T16:16:36,42.805,6.029,CST-1368DR,8586,12012,15462,0.040,551
2019-07-21T16:19:37,42.805,6.029,CST-1368DR,8586,12013,15463,0.039,551
2019-07-21T16:22:39,42.805,6.029,CST-1368DR,8586,12012,15461,0.040,551
2019-07-21T16:25:41,42.805,6.029,CST-1368DR,8586,12012,15461,0.040,551
2019-07-21T16:28:43,42.805,6.029,CST-1368DR,8586,12013,15463,0.039,551
2019-07-21T16:31:45,42.805,6.029,CST-1368DR,8586,12012,15462,0.040,551
2019-07-21T16:34:46,42.805,6.029,CST-1368DR,8586,12013,15463,0.039,551
2019-07-21T16:37:48,42.805,6.029,CST-1368DR,8586,12012,15462,0.040,551